Wind_Speed
37 39 41 47 53 61 65 70 75 82 85 87 86 86 84 77 70 67 67 67 64 64 61 60 59 59 53 52 58 53 44 42 42 35 37 32 28 31
30 33 34 40 45 53 61 68 72 79 85 87 85 85 87 84 77 71 69 70 70 67 64 63 63 58 53 52 57 53 48 43 39 38 31 28 25 19
24 27 30 33 39 46 56 65 70 75 81 83 82 83 84 86 83 78 71 75 74 72 67 65 60 57 56 57 54 54 48 41 41 36 33 29 17 16
17 19 25 30 36 43 52 60 69 73 76 79 82 82 82 85 84 86 76 80 75 73 67 63 60 63 62 62 55 56 52 45 38 35 33 20 16 15
11 15 20 28 35 43 50 56 65 70 73 76 81 83 83 85 83 87 83 81 79 75 68 65 66 69 62 61 54 57 56 41 37 31 21 15 17 15
10 16 22 27 34 39 47 52 60 67 70 76 81 84 85 85 82 84 90 86 82 74 72 72 74 70 64 64 58 55 50 45 33 30 27 16 15 13
16 20 24 28 33 39 48 55 63 68 73 77 82 86 87 84 81 83 91 88 82 75 75 78 76 72 64 59 55 51 45 37 36 31 25 20 20 13
25 27 28 30 36 41 49 58 66 72 77 81 87 90 89 86 81 84 88 90 84 84 79 81 76 68 59 56 51 47 45 35 32 28 26 22 15 14
33 33 34 35 40 47 53 59 67 74 84 88 92 92 92 87 83 85 89 92 90 82 77 81 67 60 57 56 54 44 40 35 30 29 26 16 18 16
43 44 45 46 48 53 57 64 71 78 86 94 97 98 96 90 88 86 85 87 86 82 79 74 63 57 53 53 55 44 34 35 32 28 24 20 21 17
51 48 51 56 58 61 66 71 77 85 89 94 96 98 95 88 84 85 91 85 83 75 78 70 63 55 59 54 49 36 36 30 30 30 28 26 25 20
63 62 59 60 61 65 69 71 74 78 82 86 93 93 88 82 83 89 87 85 74 73 65 61 59 57 54 52 45 29 29 30 31 30 30 29 28 26
73 74 75 77 76 75 77 78 77 79 82 87 89 87 84 85 89 90 89 79 73 66 63 60 56 57 56 51 46 35 28 34 35 33 29 29 30 27
71 77 78 83 83 84 84 83 82 82 85 86 86 82 82 86 87 88 84 80 74 68 66 59 59 56 53 50 44 31 28 33 34 34 30 29 32 33
74 76 78 77 80 84 88 91 90 90 84 77 73 78 85 84 85 87 78 73 70 66 67 57 54 50 53 54 51 37 29 34 33 31 32 33 33 32
75 75 77 77 74 74 79 79 79 84 86 84 81 80 76 76 80 74 70 69 67 58 56 51 48 46 48 50 45 41 37 37 36 36 35 36 37 36
83 86 89 89 89 88 86 84 83 81 78 74 71 66 64 66 69 67 61 60 61 57 52 48 45 43 42 43 43 41 40 39 40 40 39 40 42 42
71 74 76 77 77 77 75 74 74 72 69 65 62 61 59 58 60 60 58 55 52 47 45 44 43 43 44 44 41 38 40 42 42 42 43 44 45 50
56 59 63 67 68 68 67 66 64 62 61 59 57 56 56 57 57 57 56 52 49 47 45 46 45 45 42 40 41 44 47 47 50 50 49 51 52 53
48 49 51 55 56 57 55 54 53 48 47 50 51 52 52 52 52 52 51 50 49 48 47 45 45 44 43 44 45 46 47 49 51 50 51 56 57 59
44 42 40 39 39 38 39 40 42 43 44 43 42 44 47 49 49 47 44 43 43 42 40 39 40 40 41 43 47 48 49 50 53 56 58 60 63 66
41 38 34 33 32 31 31 29 28 31 34 35 37 39 39 38 39 40 38 35 34 35 37 39 40 43 45 47 50 53 57 60 64 66 68 70 73 75
33 32 30 28 27 25 24 21 21 23 25 27 27 28 31 29 29 30 32 34 35 37 40 42 44 48 52 55 59 61 66 70 72 74 77 80 84 88
Wind_Direction
250 242 231 227 221 219 215 212 210 208 209 209 207 205 203 200 199 197 194 193 191 187 190 190 190 196 198 194 190 182 180 186 193 194 210 221 219 239
247 239 227 219 215 211 207 206 205 204 203 204 202 201 200 199 196 196 191 188 189 184 186 187 188 193 195 192 182 180 179 182 186 197 212 217 217 222
236 231 222 212 205 204 201 199 200 200 199 199 197 196 195 195 194 193 188 183 185 183 183 185 190 192 189 179 178 183 184 186 192 199 211 211 206 245
226 218 209 201 196 193 193 193 193 195 193 191 190 190 189 189 188 188 185 182 184 182 183 186 187 184 176 173 181 183 182 188 191 199 200 196 226 255
200 193 188 188 186 186 186 187 188 188 187 183 184 183 183 183 182 184 185 182 182 181 182 183 184 176 177 180 181 184 181 181 190 201 185 209 231 246
146 155 164 172 177 177 178 177 179 182 179 176 177 177 179 177 177 181 182 184 183 183 182 182 181 176 179 182 177 183 177 184 197 198 211 231 239 246
118 129 140 152 162 166 167 168 171 173 170 170 170 172 174 172 172 177 179 187 187 186 183 183 179 179 178 180 182 183 182 189 205 217 224 220 224 243
104 111 122 139 149 155 160 162 165 164 163 163 165 169 167 168 170 173 178 184 181 181 182 180 176 177 175 174 181 189 189 195 206 215 212 218 231 242
101 108 116 124 138 146 151 154 157 158 157 158 162 164 163 166 168 171 174 176 176 177 177 176 171 173 178 179 185 187 187 204 206 214 211 212 227 246
95 107 114 121 129 135 142 146 149 151 154 158 160 160 161 163 167 170 171 170 172 172 176 169 171 176 177 182 189 186 192 207 210 213 210 219 226 247
92 102 112 119 125 131 137 142 146 151 154 156 156 156 159 162 164 164 164 168 171 172 167 168 169 166 173 172 181 181 194 206 212 211 219 226 233 247
94 97 104 111 119 125 129 134 140 144 148 150 152 153 156 158 159 160 163 167 164 163 164 165 168 168 175 182 176 177 197 203 211 220 230 236 239 246
94 99 103 107 110 115 120 125 130 136 141 145 148 151 156 157 157 156 160 157 157 161 163 164 170 174 177 179 184 187 204 212 220 229 239 245 248 253
92 98 103 106 110 116 120 123 128 133 138 144 150 154 153 152 154 157 157 157 158 162 165 170 174 177 177 180 183 181 214 213 227 238 248 261 266 260
94 97 101 105 112 118 121 125 129 135 140 143 144 146 145 149 154 157 158 159 161 165 171 174 176 183 196 203 210 199 213 230 243 252 258 260 264 266
99 101 104 107 109 115 121 124 128 130 131 133 138 141 142 148 155 158 161 165 167 172 177 176 185 198 210 212 220 225 229 236 243 251 256 258 261 270
100 102 103 104 108 113 115 118 120 124 127 129 133 137 142 148 155 160 159 167 174 180 185 190 197 202 208 212 219 226 236 241 245 253 258 260 262 265
104 108 110 112 113 117 121 124 126 129 131 134 138 143 148 153 159 165 173 178 181 186 193 200 207 216 224 229 233 239 243 246 251 256 258 258 261 263
109 109 112 115 119 122 125 128 132 135 138 141 145 149 155 162 168 175 179 183 189 194 201 208 216 223 228 233 235 237 244 248 250 252 264 275 278 281
112 110 112 118 123 128 128 131 135 139 148 152 156 161 165 169 174 179 184 189 195 202 210 218 225 229 231 235 244 254 260 265 269 272 276 281 282 284
111 111 114 117 120 124 131 139 146 152 156 158 162 167 173 180 185 191 196 201 208 215 221 230 238 244 251 256 261 265 270 272 274 277 277 278 279 280
121 120 119 121 122 129 141 146 149 155 161 167 173 178 184 188 193 199 207 217 227 234 241 246 252 256 261 263 265 267 269 271 275 277 277 279 280 281
130 134 135 136 140 141 148 154 155 166 174 176 179 191 203 208 215 223 228 232 240 245 251 254 256 260 261 264 268 270 271 273 276 280 283 285 285 286
Height
10195 10199 10205 10214 10226 10242 10259 10278 10300 10322 10344 10365 10392 10421 10448 10471 10493 10510 10531 10551 10568 10584 10598 10612 10626 10638 10650 10662 10674 10686 10696 10707 10716 10725 10732 10737 10741 10744
10182 10185 10191 10198 10211 10225 10242 10259 10281 10302 10325 10347 10377 10405 10435 10462 10485 10503 10524 10545 10562 10579 10593 10608 10621 10635 10647 10659 10673 10685 10695 10704 10713 10723 10730 10734 10738 10741
10172 10176 10180 10188 10199 10212 10228 10244 10265 10287 10310 10338 10368 10396 10425 10451 10476 10500 10521 10539 10557 10575 10590 10605 10618 10632 10644 10658 10671 10684 10691 10703 10712 10720 10727 10731 10734 10737
10166 10169 10175 10181 10191 10204 10217 10234 10252 10276 10303 10332 10361 10389 10416 10442 10467 10493 10518 10537 10554 10572 10588 10602 10616 10629 10644 10657 10670 10682 10691 10700 10711 10720 10723 10727 10731 10733
10164 10166 10172 10178 10187 10199 10211 10228 10249 10272 10299 10328 10354 10383 10411 10437 10464 10490 10514 10535 10552 10569 10584 10600 10613 10629 10643 10657 10669 10680 10691 10702 10710 10718 10721 10724 10728 10731
10165 10166 10171 10178 10186 10198 10211 10229 10251 10273 10300 10326 10352 10381 10408 10436 10461 10486 10512 10531 10548 10567 10583 10599 10613 10628 10642 10658 10670 10682 10693 10703 10710 10714 10718 10721 10725 10728
10168 10170 10174 10180 10190 10201 10214 10230 10249 10273 10300 10328 10355 10382 10407 10438 10463 10484 10507 10527 10547 10566 10584 10599 10612 10629 10645 10660 10674 10684 10694 10704 10709 10713 10716 10720 10722 10723
10175 10176 10181 10188 10197 10208 10220 10234 10253 10276 10302 10330 10357 10383 10413 10439 10462 10483 10504 10523 10543 10562 10580 10598 10617 10636 10651 10667 10679 10687 10696 10701 10707 10711 10715 10716 10718 10720
10186 10187 10191 10199 10208 10217 10231 10246 10264 10286 10306 10331 10359 10387 10415 10443 10464 10484 10503 10524 10551 10575 10591 10609 10628 10641 10656 10670 10681 10688 10695 10702 10705 10709 10710 10711 10714 10717
10202 10203 10206 10211 10221 10232 10246 10261 10280 10301 10321 10338 10361 10388 10416 10442 10463 10489 10518 10540 10558 10576 10594 10618 10633 10648 10661 10673 10681 10688 10695 10700 10703 10705 10704 10708 10710 10713
10223 10225 10225 10230 10240 10251 10263 10280 10298 10316 10335 10354 10379 10404 10429 10457 10482 10503 10528 10550 10569 10589 10609 10621 10639 10654 10664 10672 10680 10688 10693 10696 10697 10699 10701 10705 10708 10710
10248 10250 10253 10257 10268 10279 10292 10309 10327 10347 10367 10387 10405 10428 10452 10475 10497 10519 10546 10568 10588 10607 10623 10638 10649 10655 10664 10672 10677 10684 10688 10690 10692 10695 10699 10703 10706 10707
10281 10281 10283 10286 10297 10309 10320 10337 10358 10379 10398 10414 10435 10456 10474 10491 10512 10532 10552 10576 10599 10613 10629 10642 10651 10657 10660 10665 10671 10677 10684 10686 10688 10692 10697 10701 10704 10705
10322 10319 10320 10322 10333 10343 10355 10370 10389 10409 10429 10448 10462 10477 10494 10514 10534 10551 10569 10581 10597 10615 10627 10636 10642 10649 10654 10660 10665 10671 10680 10682 10687 10692 10697 10699 10700 10701
10362 10360 10362 10366 10373 10381 10390 10404 10420 10438 10459 10476 10491 10504 10518 10536 10550 10566 10579 10591 10604 10614 10624 10635 10644 10651 10658 10662 10665 10670 10678 10687 10691 10693 10693 10693 10694 10693
10402 10400 10401 10407 10417 10426 10433 10441 10454 10468 10485 10502 10516 10529 10541 10555 10569 10580 10593 10604 10612 10624 10633 10639 10646 10653 10660 10668 10673 10678 10681 10683 10685 10686 10686 10686 10685 10685
10439 10439 10441 10445 10452 10459 10469 10478 10487 10500 10514 10528 10542 10555 10565 10575 10586 10597 10607 10616 10623 10632 10638 10645 10651 10658 10662 10665 10670 10672 10675 10677 10678 10679 10680 10678 10677 10676
10472 10470 10473 10477 10484 10491 10499 10509 10518 10527 10538 10549 10560 10570 10581 10591 10601 10610 10618 10627 10634 10640 10646 10651 10656 10660 10663 10666 10669 10671 10672 10672 10672 10672 10670 10668 10666 10664
10502 10501 10504 10506 10511 10517 10525 10532 10541 10549 10558 10567 10576 10585 10594 10602 10610 10618 10625 10632 10638 10643 10647 10652 10655 10658 10661 10662 10663 10663 10662 10663 10662 10660 10661 10661 10658 10655
10521 10523 10527 10532 10538 10543 10549 10555 10563 10570 10575 10583 10590 10597 10604 10610 10616 10621 10627 10632 10638 10643 10648 10651 10653 10655 10656 10657 10658 10659 10659 10658 10657 10655 10653 10650 10646 10642
10539 10543 10547 10550 10555 10560 10566 10572 10578 10584 10590 10596 10602 10607 10611 10616 10622 10628 10633 10638 10642 10645 10648 10650 10652 10653 10655 10655 10654 10652 10650 10648 10646 10643 10639 10635 10630 10626
10554 10557 10561 10565 10569 10574 10579 10585 10591 10597 10602 10608 10612 10617 10622 10627 10631 10635 10638 10641 10643 10644 10645 10646 10646 10646 10646 10645 10643 10641 10638 10635 10632 10628 10624 10620 10615 10609
10566 10569 10572 10575 10580 10584 10588 10592 10596 10601 10606 10612 10618 10622 10625 10628 10631 10633 10636 10637 10638 10639 10639 10639 10638 10637 10637 10635 10633 10631 10627 10623 10619 10613 10608 10602 10596 10589